Regional Weather Roundup
Issued by NWS State College, PA

Home | Current Version | Previous Version | Graphics & Text | Print | Product List | Glossary On
Versions: 1 2 3 4 5 6 7 8 9 10 11 12 13 14 15 16 17 18 19 20 21 22 23 24 25 26 27 28 29 30 31 32 33 34 35 36 37 38 39 40 41 42 43 44 45 46 47 48 49 50
804
ASUS41 KCTP 070103
RWRCTP

REGIONAL WEATHER ROUNDUP
NATIONAL WEATHER SERVICE STATE COLLEGE PA
800 PM EST TUE DEC 06 2016

Note: "fair" indicates few or no clouds below 12,000 feet with no
significant weather and/or obstructions to visibility.

* = STATION THAT DOES NOT REPORT PRECIPITATION /E.G. RAIN...SNOW...ETC/
    THUNDER OR FOG.

PAZ002>004-007>009-013>016-020>023-029>032-070200-
WESTERN PENNSYLVANIA

CITY           SKY/WX    TMP DP  RH WIND       PRES   REMARKS
ERIE           CLOUDY    39  35  86 S6        29.72F
MEADVILLE      CLOUDY    36  34  92 VRB3      29.71S FOG
FRANKLIN*        N/A     36  30  80 SE9G21    29.74S
NEW CASTLE     LGT RAIN  38  37  97 S6        29.74S FOG
BEAVER COUNTY  LGT RAIN  37  37 100 SE7       29.73S
BUTLER*        CLOUDY    37  34  87 SE6       29.76S
PITTSBURGH INT DRIZZLE   40  39  97 SE7       29.74R FOG
PITTSBURGH     CLOUDY    38  36  92 S9        29.73F FOG
INDIANA*       CLOUDY    37  37 100 S7        29.80R FOG
LATROBE        LGT RAIN  41  37  87 SW6       29.78R
WASHINGTON CO* CLOUDY    39  37  93 S5        29.75S
$$

PAZ004>006-010>012-017>019-024>028-033>037-041-042-045-046-049>053-070200-
CENTRAL PENNSYLVANIA

CITY           SKY/WX    TMP DP  RH WIND       PRES   REMARKS
BRADFORD       LGT SNOW  33  32  96 S9G16     29.73S FOG
DUBOIS         MIX PCPN  34  31  88 SE9       29.75R FOG
CLEARFIELD     LGT RAIN  34  34 100 CALM      29.80S FOG
JOHNSTOWN      LGT RAIN  34  33  96 SW10      29.76R
ALTOONA        CLOUDY    35  34  96 CALM      29.81F FOG
STATE COLLEGE  DRIZZLE   36  32  87 SE5       29.82F
WILLIAMSPORT   LGT RAIN  39  32  76 NE10      29.87F
SELINSGROVE    LGT RAIN  34  34 100 CALM      29.89F FOG
FT INDIANTOWN  LGT RAIN  37  37 100 E6        29.89R FOG
CAPITAL CITY   LGT RAIN  38  34  85 E6        29.88F FOG
HARRISBURG     LGT RAIN  37  37 100 NE5       29.88F FOG
YORK           LGT RAIN  38  38 100 NE6       29.86F FOG
$$

PAZ038>040-043-044-047-048-054-055-060>062-067>071-070200-
EASTERN PENNSYLVANIA

CITY           SKY/WX    TMP DP  RH WIND       PRES   REMARKS
SCRANTON       LGT RAIN  34  33  96 N3        29.88R FOG
MOUNT POCONO   LGT SNOW  31  29  92 E15G22    29.84F FOG
ALLENTOWN      LGT RAIN  35  32  88 NE9       29.90F
QUAKERTOWN*    CLOUDY    37  36  93 NE6       29.89S
READING        RAIN      37  35  92 N6        29.88R FOG
LANCASTER      LGT RAIN  38  38 100 NE7       29.88R FOG
COATESVILLE    LGT RAIN  39  39 100 NE5G16    29.86S
POTTSTOWN      RAIN      38  37  97 NE9       29.88F FOG
BLUE BELL      CLOUDY    39  37  93 NE9G17    29.85F
DOYLESTOWN     LGT RAIN  40  38  93 NE5       29.88S
WILLOW GROVE   NOT AVBL
NORTH PHILA    RAIN      43  41  93 E12       29.89F
PHILADELPHIA   LGT RAIN  44  41  89 E12       29.87F FOG
$$




USA.gov is the U.S. government's official web portal to all federal, state and local government web resources and services.